Lake Graham Weather Center

Moon Phase Calendar



Lake Graham Water Level
Online Cameras

 


      

Current Conditions in Graham
11/29/2021 3:16:44 AM

50°F
Feels Like 47
Clear
Humidity
43%
Pressure
30.21"
Wind
7.9 mph (SSW)
Dew Point
29°F
UV Index
0/10 (Low)
Visibility
6 mi

Hourly Forecast

Date & Time Mon, Nov 29
3:00 AM
Mon, Nov 29
4:00 AM
Mon, Nov 29
5:00 AM
Mon, Nov 29
6:00 AM
Mon, Nov 29
7:00 AM
Mon, Nov 29
8:00 AM
Mon, Nov 29
9:00 AM
Mon, Nov 29
10:00 AM
Mon, Nov 29
11:00 AM
Mon, Nov 29
12:00 PM
Mon, Nov 29
1:00 PM
Mon, Nov 29
2:00 PM
Mon, Nov 29
3:00 PM
Mon, Nov 29
4:00 PM
Mon, Nov 29
5:00 PM
Mon, Nov 29
6:00 PM
Mon, Nov 29
7:00 PM
Mon, Nov 29
8:00 PM
Mon, Nov 29
9:00 PM
Mon, Nov 29
10:00 PM
Mon, Nov 29
11:00 PM
Tue, Nov 30
12:00 AM
Tue, Nov 30
1:00 AM
Tue, Nov 30
2:00 AM
Tue, Nov 30
3:00 AM
Tue, Nov 30
4:00 AM
Tue, Nov 30
5:00 AM
Tue, Nov 30
6:00 AM
Tue, Nov 30
7:00 AM
Tue, Nov 30
8:00 AM
Tue, Nov 30
9:00 AM
Tue, Nov 30
10:00 AM
Tue, Nov 30
11:00 AM
Tue, Nov 30
12:00 PM
Tue, Nov 30
1:00 PM
Tue, Nov 30
2:00 PM
Tue, Nov 30
3:00 PM
Tue, Nov 30
4:00 PM
Tue, Nov 30
5:00 PM
Tue, Nov 30
6:00 PM
Tue, Nov 30
7:00 PM
Tue, Nov 30
8:00 PM
Tue, Nov 30
9:00 PM
Tue, Nov 30
10:00 PM
Tue, Nov 30
11:00 PM
Wed, Dec 1
12:00 AM
Wed, Dec 1
1:00 AM
Wed, Dec 1
2:00 AM
Condition
Clear

Clear

Clear

Clear

Clear

Clear

Clear

Clear

Clear

Clear

Clear

Clear

Clear

Clear

Clear

Clear

Clear

Clear

Clear

Clear

Clear

Clear

Clear

Clear

Clear

Clear

Clear

Clear

Clouds

Clouds

Clouds

Clouds

Clouds

Clouds

Clouds

Clouds

Clouds

Clouds

Clouds

Clouds

Clouds

Clouds

Clouds

Clouds

Clouds

Clouds

Clouds

Clouds
Temperature 50°F50°F50°F49°F49°F50°F55°F61°F66°F70°F73°F75°F75°F75°F69°F64°F62°F61°F60°F59°F58°F57°F56°F56°F55°F54°F53°F53°F52°F53°F59°F64°F69°F72°F75°F76°F76°F75°F69°F65°F63°F62°F61°F60°F60°F59°F58°F58°F
Feels Like 47°F46°F46°F46°F45°F46°F53°F59°F64°F68°F71°F73°F74°F73°F67°F62°F60°F58°F57°F56°F56°F55°F54°F53°F53°F52°F51°F51°F51°F52°F57°F63°F67°F71°F73°F75°F75°F74°F68°F63°F61°F60°F59°F58°F58°F57°F57°F56°F
Cloudiness 0%0%0%0%0%0%0%0%0%0%0%0%0%0%0%0%0%0%0%0%0%0%0%0%0%0%5%8%53%47%57%60%66%71%94%93%92%94%95%96%100%100%100%100%100%98%99%99%
Visibility 6 mi6 mi6 mi6 mi6 mi6 mi6 mi6 mi6 mi6 mi6 mi6 mi6 mi6 mi6 mi6 mi6 mi6 mi6 mi6 mi6 mi6 mi6 mi6 mi6 mi6 mi6 mi6 mi6 mi6 mi6 mi6 mi6 mi6 mi6 mi6 mi6 mi6 mi6 mi6 mi6 mi6 mi6 mi6 mi6 mi6 mi6 mi6 mi
Precipitation 0%0%0%0%0%0%0%0%0%0%0%0%0%0%0%0%0%0%0%0%0%0%0%0%0%0%0%0%0%0%0%0%0%0%0%0%0%0%0%0%0%0%0%0%0%0%0%0%
Humidity 43%44%45%48%50%50%42%35%31%27%24%22%21%23%29%33%36%39%41%44%46%49%53%55%57%59%61%65%69%70%60%48%40%33%29%27%26%29%35%38%39%39%41%45%50%56%62%68%
Dew Point 29°F29°F29°F31°F31°F31°F33°F33°F34°F34°F34°F33°F33°F35°F36°F34°F35°F36°F36°F37°F37°F38°F39°F40°F40°F40°F40°F41°F42°F44°F45°F44°F43°F42°F41°F40°F40°F40°F41°F39°F38°F37°F37°F39°F41°F43°F45°F47°F
Pressure 30.21"30.21"30.21"30.18"30.18"30.18"30.18"30.18"30.15"30.12"30.06"30.03"30"30"30"30"30.03"30.03"30.03"30.03"30.03"30.03"30.03"30.03"30"30"30"30"30.03"30.06"30.03"30.03"30.03"30"29.97"29.94"29.94"29.91"29.94"29.94"29.97"29.97"29.97"29.97"30"30"30"30"
Wind Speed 7.9 mph8.5 mph8.2 mph8.4 mph9 mph8.7 mph10.6 mph12.7 mph12.7 mph12.8 mph12.9 mph12.6 mph11.9 mph9.3 mph7.4 mph8.6 mph9.4 mph9.4 mph9.6 mph9.7 mph9.8 mph9.6 mph9.6 mph9.7 mph9.9 mph9.6 mph9.3 mph9.2 mph8.8 mph8.8 mph11.3 mph13.5 mph13.5 mph14.2 mph13.7 mph13.7 mph13.2 mph11.5 mph8.9 mph10.3 mph11.2 mph10.9 mph12.3 mph11.7 mph11.4 mph10.3 mph9.6 mph10 mph
Wind
Direction
212°
SSW
220°
SW
224°
SW
228°
SW
227°
SW
224°
SW
224°
SW
231°
SW
232°
SW
232°
SW
233°
SW
230°
SW
228°
SW
221°
SW
200°
SSW
187°
S
189°
S
193°
SSW
196°
SSW
195°
SSW
195°
SSW
198°
SSW
204°
SSW
210°
SSW
214°
SW
217°
SW
219°
SW
218°
SW
215°
SW
211°
SSW
214°
SW
220°
SW
216°
SW
211°
SSW
210°
SSW
208°
SSW
206°
SSW
194°
SSW
173°
S
165°
SSE
165°
SSE
166°
SSE
171°
S
177°
S
187°
S
196°
SSW
201°
SSW
202°
SSW

Daily Forecast

Date High Low Precip. Humidity
Today
Nov 29

Clear
75 °F
49 °F
0%
27%
Tuesday
Nov 30

Clouds
76 °F
52 °F
0%
33%
Wednesday
Dec 1

Clouds
73 °F
55 °F
0%
33%
Thursday
Dec 2

Clouds
76 °F
54 °F
0%
30%
Friday
Dec 3

Rain
73 °F
60 °F
51%
69%
Saturday
Dec 4

Clear
77 °F
57 °F
47%
20%
Sunday
Dec 5

Rain
69 °F
51 °F
68%
52%
Monday
Dec 6

Clear
55 °F
43 °F
68%
31%
Tuesday
Dec 7

Clouds
72 °F
44 °F
0%
55%
Wednesday
Dec 8

Rain
63 °F
48 °F
98%
58%
Thursday
Dec 9

Clouds
52 °F
38 °F
0%
21%
Friday
Dec 10

Clear
69 °F
42 °F
0%
42%
Saturday
Dec 11

Clear
62 °F
45 °F
0%
33%
Sunday
Dec 12

Clouds
59 °F
40 °F
0%
22%
Monday
Dec 13

Clouds
65 °F
45 °F
0%
56%
Tuesday
Dec 14

Clouds
66 °F
57 °F
14%
88%

Temperature 8-14 Day Outlook



Precipitation 8-14 Day Outlook




Quick Links
Lake Graham News
Lake Graham Photos
Lake Graham Videos




About Us
Contact Us
Site Map
Search Site
Advertise With Us
   
Graham.LakesOnline.com
THE LAKE GRAHAM WEBSITE

Copyright 2021, Lakes Online
Privacy    |    Legal